Location: Palomar Mountain Lodge
(33.3110°N, 116.8495°W)
Time: 02:18:58
(UTC-07:00)

Cosmos 1844 - Pass Details

Date: 14 June 2018
Orbit: 824 x 866 km, 70.9° (Epoch: 19 October)

Event Time Altitude Azimuth Distance (km) Brightness Sun altitude
Exits shadow 22:51:04 41° 69° (ENE) 1,199 4.3 -26.9°
Drops below altitude 10° 22:55:17 10° 33° (NNE) 2,480 6.4 -27.4°
Sets 22:57:49 0° 28° (NNE) 3,426 7.3 -27.6°
